User: anonymous   Login
Location: Orange Harbor Mobile Home Park
(26.6923°N, 81.7937°W)
Time: 22:25:11
(UTC+00:00)
Language:

Cosmos 1174 - Orbit

View from above orbital plane
View from above orbital plane
View from above satellite
View from above satellite

Ground track
Ground track

The orbit data is extracted from the following two-line orbital elements,

1 11765U 80030A   20327.88509859 +.00000885 +00000-0 +50416-4 0  9998
2 11765 066.0853 096.3720 0555791 272.0631 081.6946 14.39919033084884
Epoch (UTC): 22 November 2020 21:14:32
Eccentricity: 0.0555791
inclination: 66.0853°
perigee height: 362 km
apogee height: 1155 km
right ascension of ascending node: 96.3720°
argument of perigee: 272.0631°
revolutions per day: 14.39919033
mean anomaly at epoch: 81.6946°
orbit number at epoch: 8488

The dashed part of the orbit path shows where the satellite is in the earth's shadow,  

DLR